Regional Weather Roundup
Issued by NWS

Home | Current Version | Previous Version | Graphics & Text | Print | Product List | Glossary On
Versions: 1 2 3 4 5 6 7 8 9 10 11 12 13 14 15 16 17 18 19 20 21 22 23 24 25 26 27 28 29 30 31 32 33 34 35 36 37 38 39 40 41 42 43 44 45 46 47 48 49 50
000
ASUS45 KBOU 310507
RWRCO

WEATHER ROUNDUP FOR COLORADO
NATIONAL WEATHER SERVICE DENVER/BOULDER CO
1100 PM MDT WED JUL 30 2014

NOTE: "FAIR" INDICATES FEW OR NO CLOUDS BELOW 12000 FEET WITH NO
SIGNIFICANT WEATHER AND/OR OBSTRUCTIONS TO VISIBILITY.

COZ001>005-013-030-031-310600-
...NORTHWEST COLORADO...

CITY           SKY/WX    TMP DP  RH WIND       PRES   REMARKS
CRAIG          CLOUDY    57  56  96 E8        30.31F
HAYDEN         CLOUDY    59  52  77 E8        30.34S
MEEKER         CLOUDY    63  55  75 SE6       30.31F
MOUNT WERNER   NOT AVBL
STEAMBOAT SPGS CLOUDY    57  54  89 CALM      30.36S
WALDEN         CLOUDY    50  43  76 E6        30.45F
$$

COZ006>008-011-310600-
...WEST CENTRAL VALLEYS...

CITY           SKY/WX    TMP DP  RH WIND       PRES   REMARKS
GRAND JUNCTION CLOUDY    69  59  70 NW8       30.19R
MONTROSE       MOCLDY    70  54  56 S8        30.26R
EAGLE          CLOUDY    57  57 100 E7        30.37S
RIFLE          MOCLDY    66  57  72 NW3       30.25R
DELTA          MOCLDY    71  57  59 N10       30.20R
NUCLA          MOCLDY    68  54  60 E3        30.28R
$$

COZ017>023-064>068-310600-
...SOUTHWEST COLORADO...

CITY           SKY/WX    TMP DP  RH WIND       PRES   REMARKS
DURANGO        CLEAR     70  48  45 CALM      30.25R
CORTEZ         CLEAR     66  52  60 NE7       30.22R
PAGOSA SPRINGS CLEAR     58  50  72 CALM      30.34R
TELLURIDE      PTCLDY    57  50  77 CALM      30.46S
WOLF CREEK PAS NOT AVBL
$$

COZ009-010-012-014-032>034-037-058>063-310600-
...CENTRAL COLORADO...

CITY           SKY/WX    TMP DP  RH WIND       PRES   REMARKS
ASPEN          CLOUDY    56  54  93 SW6       30.39F
BUENA VISTA    LGT RAIN  53  50  89 E3        30.46S
COPPER MTN     CLOUDY    46  41  81 S9        30.67S
BERTHOUD PASS  FOG       36  36 100 E10       30.71S VSB<1/4
COTTONWOOD PAS HVY RAIN  52  48  87 SE6       30.57S VSB 1/4
GUNNISON       PTCLDY    61  46  59 N3        30.39R
KREMMLING      CLOUDY    55  52  88 CALM      30.42S
LEADVILLE      CLOUDY    48  47  96 S6        30.53S
MONARCH PASS   FOG       43  41  93 E16       30.76R VSB<1/4
SALIDA         CLOUDY    56  53  89 E7        30.50S
SUNLIGHT       MOCLDY    50  48  93 CALM      30.60S
WILKERSON PASS RAIN      43  41  93 E7        30.67S VSB 3/4
$$

COZ069>075-310600-
...SAN LUIS VALLEY/SANGRE DE CRISTO MOUNTAINS...

CITY           SKY/WX    TMP DP  RH WIND       PRES   REMARKS
ALAMOSA        CLOUDY    56  53  90 E5        30.38R
LA VETA PASS   CLOUDY    46  45  93 E12       30.56S VSB 1/4
SAGUACHE       MOCLDY    57  54  88 CALM      30.41R
$$

COZ035-036-038>040-310600-
...NORTHERN COLORADO FRONT RANGE...

CITY           SKY/WX    TMP DP  RH WIND       PRES   REMARKS
DENVER INTL AP CLOUDY    59  56  89 SW10      30.34F
DMNS CITY PARK   N/A     58  56  94 SW2       30.34F
AURORA         CLOUDY    57  57 100 W3        30.37F
FRONT RANGE AP LGT RAIN  59  57  94 SW8       30.36S
ERIE MUNI ARPT CLOUDY    59  58  95 S3        30.34S
BOULDER MUN AP CLOUDY    59  55  88 SW5       30.34S
CENTENNIAL     CLOUDY    57  54  89 W5        30.37S
BROOMFIELD     NOT AVBL
FORT COLLINS   CLOUDY    59  55  88 S6        30.34F
LONGMONT       CLOUDY    61  57  88 S3        30.34F
$$

COZ041-046-047-076>085-087-088-310600-
...PIKES PEAK/PALMER DIVIDE AND SOUTHERN FOOTHILLS...

CITY           SKY/WX    TMP DP  RH WIND       PRES   REMARKS
COLO. SPRINGS  LGT RAIN  57  54  89 W6        30.40F
A. F. ACADEMY  DRIZZLE   54  54  99 W2        30.41F
ELLICOTT       CLOUDY    57  54  89 W3        30.39R
FALCON         RAIN      54  52  95 W3        30.43F
FORT CARSON    CLOUDY    57  57  97 W6        30.39S
LIMON          CLOUDY    58  55  90 CALM      30.35F
MONUMENT HILL  CLOUDY    52  50  93 SW3       30.41F
TRINIDAD       CLOUDY    59  57  93 E6        30.36S
$$

COZ042>045-048>051-090-091-310600-
...NORTHEAST COLORADO...

CITY           SKY/WX    TMP DP  RH WIND       PRES   REMARKS
GREELEY ARPT   NOT AVBL
AKRON          CLOUDY    58  56  93 W6        30.30F
BURLINGTON     CLOUDY    60  56  86 W5        30.29S
WRAY             N/A     61  58  90 W3        30.27R
STERLING       CLOUDY    63  61  94 SW5       30.27F
HOLYOKE        CLEAR     63  59  88 W8        30.25S
FORT MORGAN    CLOUDY    59  56  91 W6        30.31F
$$

COZ086-089-092>099-310600-
...SOUTHEAST COLORADO...

CITY           SKY/WX    TMP DP  RH WIND       PRES   REMARKS
PUEBLO         CLOUDY    62  60  93 CALM      30.32F
LA JUNTA       MOCLDY    63  59  87 S5        30.29F
LAMAR          MOCLDY    59  57  93 SW5       30.26S
SPRINGFIELD    NOT AVBL
$$


USA.gov is the U.S. government's official web portal to all federal, state and local government web resources and services.